Regional Weather Roundup
Issued by NWS Charleston, SC

Current Version | Previous Version | Graphics & Text | Print | Product List | Glossary On
Versions: 1 2 3 4 5 6 7 8 9 10 11 12 13 14 15 16 17 18 19 20 21 22 23 24 25 26 27 28 29 30 31 32 33 34 35 36 37 38 39 40 41 42 43 44 45 46 47 48 49 50
000
ASUS42 KCHS 291625
RWRCHS

REGIONAL WEATHER ROUNDUP
NATIONAL WEATHER SERVICE CHARLESTON SC
1200 PM EDT TUE JUL 29 2014

NOTE: "FAIR" INDICATES FEW OR NO CLOUDS BELOW 12,000 FEET WITH NO
SIGNIFICANT WEATHER AND/OR OBSTRUCTIONS TO VISIBILITY.

NOT ALL STATIONS ARE QUALITY CONTROLLED BY THE NATIONAL
WEATHER SERVICE. USE DATA WITH CAUTION...ESPECIALLY
DEWPOINT OBSERVATIONS.

SCZ027-030-031-034>040-042>050-291700-
...SOUTH CAROLINA...

CITY           SKY/WX    TMP DP  RH WIND       PRES   REMARKS
N CHARLESTON   MOSUNNY   86  63  45 N10       29.93S
WATERFRONT PRK   N/A     81 N/A N/A N6          N/A
FORT JOHNSON   NOT AVBL
MOUNT PLEASANT FAIR      84  66  54 CALM      29.92F
JOHNS ISLAND   SUNNY     84  66  54 CALM      29.92F
PINOPOLIS        N/A     82  63  51 N5        29.86F
MONCKS CORNER    N/A     84  68  58 NW6       29.93F
SUMMERVILLE    FAIR      82  64  54 N3        29.95S
BEAUFORT MCAS  SUNNY     85  65  51 NE6       29.93S
BEAUFORT ARPT  FAIR      82  68  61 NE7       29.93S
HILTON HEAD IS SUNNY     84  70  61 N9        29.94S
GEORGETOWN     NOT AVBL
WALTERBORO     SUNNY     86  55  35 E5        29.95S
ORANGEBURG     SUNNY     81  61  50 VRB3      29.96S
BARNWELL       FAIR      82  61  47 N5        29.97S
AIKEN          FAIR      81  61  50 N3        30.01S
MANNING        FAIR      82  64  54 NE3       29.95S
KINGSTREE      NOT AVBL
COLUMBIA       MOSUNNY   86  55  34 NW7       29.96S
SUMTER         SUNNY     80  60  50 NE5       29.94F
FLORENCE       SUNNY     82  61  48 N5        29.95R
MYRTLE BEACH   NOT AVBL
N MYRTLE BEACH MOSUNNY   83  63  50 N7        29.91S

$$

GAZ063-065-086>088-099>101-113>116-118-119-134-136>141-150-291700-
...GEORGIA...

CITY           SKY/WX    TMP DP  RH WIND       PRES   REMARKS
SAVANNAH ARPT  SUNNY     86  66  51 VRB3      29.94S
HUNTER AAF     SUNNY     86  68  55 VRB2      29.91F
FORT STEWART   SUNNY     85  65  50 CALM      29.93S
STATESBORO     NOT AVBL
SYLVANIA       SUNNY     83  68  59 CALM      29.96F
CLAXTON        FAIR      86  66  51 CALM      29.95S
THOMSON        SUNNY     84  66  55 CALM      30.03S
AUGUSTA-BUSH   SUNNY     83  59  44 VRB5      29.97R
AUGUSTA-DANIEL SUNNY     84  57  39 VRB7      29.98S
SWAINSBORO     FAIR      86  64  48 CALM      29.98S
VIDALIA          N/A     86  63  45 N5        29.96F
ALMA           SUNNY     87  62  43 NW8       29.95F
WAYCROSS       SUNNY     93  64  37 NW12G17   29.94F HX  95
JESUP          FAIR      90  66  45 CALM      29.93F HX  92
BRUNSWICK      SUNNY     90  59  35 CALM      29.93F
SAINT SIMONS   SUNNY     88  68  51 VRB6      29.93F HX  91

$$

SCZ027-028-034-036>038-045-046-048>050-GAZ119-141-291700-
...LAKE AND SUPPLEMENTAL COASTAL OBSERVATIONS...

STATION/POSITION TIME  TEMP    WIND        PRES    WAVE   SWELL
                       AIR SEA DIR/SP/G            HT/PER HT/PER/DIR
                 (UTC) (F)     (DEG/KT/KT) (MB)    (FT/S) (FT/S/D)
UPR LAKE MARION  NOT AVBL
WINYAH BAY       1600   80      70/  7     1013.0S
LAKE MURRAY      1600   80      80/  2/  5 1014.2S
ACE BASIN NERRS  1600   85      70/  3     1014.0S
FORT PULASKI     1600   81      80/  6/  7 1013.8F
SAPELO ISLAND    1600   87     210/  4     1014.0S

$$

ANZ835-935-AMZ111-154-330-350-352-354-374-450-454-472-291700-
...C-MAN AND BUOY OBSERVATIONS...

STATION/POSITION TIME  TEMP    WIND        PRES    WAVE   SWELL
                       AIR SEA DIR/SP/G            HT/PER HT/PER/DIR
                 (UTC) (F)     (DEG/KT/KT) (MB)    (FT/S) (FT/S/D)
FOLLY BEACH CMAN 1600   81      10/  8/  9 1013.7F
BUOY 41004       1600   82 84   50/  6/  8 1011.7R   4/ 5   3/ 5
BUOY 41008       1600   83 85  340/  4/  4 1013.3R   2/ 4   2/120/ 8
5E ST. MARYS GA  1600      85                N/A     1/ 3
FRYING PAN BUOY  NOT AVBL
BUOY 41025       1600          VRB 12/ 16  1012.0R   3/ 8   2/140/ 8
CAPE LOOKOUT NC  1600   79      10/  9/ 12 1012.4R
BUOY 41002       1458   78 81  180/ 19/ 23 1013.9    5/ 8   5/230/ 8
BUOY 41010       1600   84 84  250/ 16/ 17 1014.5S   5/ 6   2/110/ 9
BUOY 41012       NOT AVBL
ST AUGUSTINE FL  1600   86     270/  8/ 10 1014.8S
CAPERS NEARSHORE 1500   80      60/ 12/ 14   N/A
FRIPP NEARSHORE  NOT AVBL


$$



USA.gov is the U.S. government's official web portal to all federal, state and local government web resources and services.